QPF
0.00 0.00 0.00 0.00 0.00 0.00 0.00 0.00 0.00 0.01 0.00 0.00 0.00 0.00 0.00 0.00 0.00 0.00 0.00 0.00 0.00 0.01 0.02 0.02 0.01 0.04 0.03 0.01 0.02 0.00 0.03 0.01 0.00 0.00 0.01 0.00 0.00 0.00 0.00 0.00 0.00 0.00
0.00 0.00 0.00 0.00 0.00 0.00 0.00 0.00 0.01 0.00 0.00 0.00 0.00 0.00 0.00 0.00 0.00 0.00 0.00 0.00 0.00 0.01 0.02 0.01 0.00 0.00 0.03 0.19 0.17 0.02 0.01 0.00 0.00 0.00 0.00 0.00 0.00 0.00 0.00 0.00 0.00 0.00
0.00 0.00 0.00 0.00 0.00 0.00 0.00 0.01 0.00 0.00 0.00 0.00 0.00 0.00 0.01 0.00 0.00 0.00 0.00 0.00 0.00 0.02 0.01 0.02 0.01 0.00 0.01 0.01 0.04 0.02 0.00 0.00 0.00 0.00 0.00 0.00 0.00 0.00 0.00 0.00 0.00 0.00
0.00 0.00 0.00 0.00 0.00 0.00 0.00 0.01 0.00 0.00 0.00 0.00 0.00 0.00 0.00 0.00 0.00 0.00 0.00 0.00 0.00 0.01 0.01 0.01 0.08 0.01 0.01 0.02 0.02 0.01 0.00 0.00 0.00 0.00 0.00 0.00 0.00 0.00 0.00 0.00 0.00 0.00
0.00 0.00 0.00 0.00 0.00 0.00 0.00 0.00 0.00 0.00 0.00 0.00 0.00 0.00 0.00 0.00 0.01 0.00 0.00 0.00 0.00 0.00 0.00 0.00 0.02 0.00 0.01 0.00 0.01 0.00 0.00 0.00 0.00 0.00 0.00 0.00 0.00 0.00 0.00 0.00 0.00 0.00
0.00 0.00 0.00 0.00 0.00 0.00 0.00 0.00 0.00 0.00 0.00 0.00 0.00 0.00 0.00 0.00 0.00 0.00 0.02 0.00 0.00 0.00 0.00 0.00 0.01 0.02 0.01 0.00 0.00 0.00 0.00 0.00 0.00 0.00 0.00 0.00 0.00 0.00 0.00 0.00 0.00 0.00
0.00 0.00 0.00 0.00 0.00 0.00 0.00 0.00 0.00 0.00 0.00 0.00 0.00 0.00 0.00 0.00 0.00 0.00 0.00 0.00 0.00 0.00 0.00 0.00 0.00 0.00 0.00 0.00 0.00 0.00 0.00 0.00 0.00 0.00 0.00 0.00 0.00 0.00 0.00 0.00 0.00 0.00
0.00 0.00 0.00 0.00 0.00 0.01 0.00 0.00 0.00 0.00 0.00 0.00 0.00 0.00 0.00 0.00 0.00 0.00 0.00 0.00 0.00 0.00 0.00 0.00 0.00 0.00 0.00 0.00 0.00 0.00 0.00 0.00 0.00 0.00 0.00 0.00 0.00 0.00 0.00 0.00 0.00 0.00
0.00 0.00 0.00 0.00 0.01 0.01 0.00 0.00 0.00 0.00 0.00 0.00 0.00 0.00 0.00 0.00 0.00 0.00 0.04 0.00 0.00 0.00 0.00 0.00 0.00 0.00 0.00 0.00 0.00 0.00 0.00 0.00 0.00 0.00 0.00 0.00 0.00 0.00 0.00 0.00 0.00 0.00
0.00 0.00 0.00 0.00 0.01 0.01 0.00 0.00 0.00 0.00 0.00 0.00 0.00 0.00 0.00 0.00 0.00 0.01 0.00 0.00 0.00 0.00 0.00 0.00 0.00 0.00 0.00 0.00 0.00 0.00 0.00 0.00 0.00 0.00 0.00 0.00 0.00 0.00 0.00 0.00 0.00 0.00
0.00 0.00 0.00 0.00 0.00 0.00 0.00 0.00 0.00 0.00 0.00 0.00 0.00 0.00 0.00 0.00 0.00 0.00 0.00 0.00 0.00 0.00 0.00 0.00 0.00 0.00 0.00 0.00 0.00 0.00 0.00 0.00 0.00 0.00 0.00 0.00 0.00 0.00 0.00 0.00 0.00 0.00
0.00 0.00 0.00 0.00 0.01 0.01 0.01 0.00 0.00 0.00 0.00 0.00 0.00 0.00 0.00 0.00 0.00 0.00 0.00 0.00 0.00 0.00 0.00 0.00 0.00 0.00 0.00 0.00 0.00 0.00 0.00 0.00 0.00 0.00 0.00 0.00 0.00 0.00 0.00 0.00 0.00 0.00
0.01 0.00 0.00 0.01 0.01 0.01 0.00 0.00 0.00 0.00 0.00 0.00 0.00 0.00 0.00 0.00 0.00 0.00 0.00 0.00 0.00 0.00 0.00 0.00 0.00 0.00 0.00 0.00 0.00 0.00 0.00 0.00 0.00 0.00 0.00 0.00 0.00 0.00 0.00 0.00 0.00 0.00
0.00 0.00 0.00 0.01 0.01 0.01 0.01 0.00 0.00 0.00 0.00 0.00 0.00 0.00 0.00 0.00 0.00 0.00 0.00 0.00 0.00 0.00 0.00 0.00 0.00 0.00 0.00 0.00 0.00 0.00 0.00 0.00 0.00 0.00 0.00 0.00 0.00 0.00 0.00 0.00 0.00 0.00
0.00 0.00 0.00 0.00 0.01 0.01 0.01 0.00 0.00 0.00 0.00 0.00 0.00 0.00 0.00 0.00 0.00 0.00 0.00 0.00 0.00 0.00 0.00 0.00 0.00 0.00 0.00 0.00 0.00 0.00 0.00 0.00 0.00 0.00 0.00 0.01 0.00 0.00 0.00 0.00 0.00 0.00
0.00 0.00 0.01 0.01 0.01 0.00 0.01 0.00 0.00 0.00 0.00 0.00 0.00 0.00 0.00 0.00 0.00 0.00 0.00 0.00 0.00 0.00 0.00 0.00 0.00 0.00 0.00 0.00 0.00 0.00 0.00 0.00 0.00 0.00 0.00 0.00 0.00 0.00 0.00 0.00 0.00 0.00
0.00 0.01 0.01 0.00 0.00 0.01 0.00 0.00 0.00 0.00 0.00 0.00 0.00 0.00 0.00 0.00 0.00 0.00 0.00 0.00 0.00 0.00 0.00 0.00 0.00 0.00 0.00 0.00 0.00 0.00 0.00 0.00 0.00 0.00 0.00 0.00 0.00 0.00 0.00 0.00 0.00 0.00
0.00 0.00 0.01 0.01 0.01 0.00 0.00 0.00 0.00 0.00 0.00 0.00 0.00 0.00 0.00 0.00 0.00 0.00 0.00 0.00 0.00 0.00 0.00 0.00 0.00 0.00 0.00 0.00 0.00 0.00 0.00 0.00 0.00 0.00 0.00 0.00 0.00 0.00 0.00 0.00 0.00 0.00
0.01 0.01 0.01 0.01 0.00 0.00 0.01 0.00 0.00 0.00 0.00 0.00 0.00 0.00 0.00 0.00 0.00 0.00 0.00 0.00 0.00 0.00 0.00 0.00 0.00 0.00 0.00 0.00 0.00 0.00 0.00 0.00 0.00 0.00 0.00 0.00 0.00 0.00 0.00 0.00 0.00 0.00
0.01 0.00 0.00 0.00 0.00 0.00 0.00 0.00 0.00 0.00 0.00 0.00 0.00 0.00 0.00 0.00 0.00 0.00 0.00 0.00 0.00 0.00 0.00 0.00 0.00 0.00 0.00 0.00 0.00 0.00 0.00 0.00 0.00 0.00 0.00 0.00 0.00 0.00 0.00 0.00 0.00 0.00
0.01 0.00 0.00 0.01 0.00 0.00 0.00 0.00 0.00 0.00 0.00 0.00 0.00 0.00 0.00 0.00 0.00 0.00 0.00 0.00 0.00 0.00 0.00 0.00 0.00 0.00 0.00 0.00 0.00 0.00 0.00 0.00 0.00 0.00 0.00 0.00 0.00 0.00 0.00 0.00 0.00 0.00
0.01 0.00 0.01 0.01 0.01 0.00 0.00 0.00 0.00 0.00 0.00 0.00 0.00 0.00 0.00 0.00 0.00 0.00 0.00 0.00 0.00 0.00 0.00 0.00 0.00 0.00 0.00 0.00 0.00 0.00 0.00 0.00 0.00 0.00 0.00 0.00 0.00 0.00 0.00 0.00 0.00 0.00
0.01 0.01 0.01 0.01 0.01 0.00 0.00 0.00 0.00 0.00 0.00 0.00 0.00 0.00 0.00 0.00 0.00 0.00 0.00 0.00 0.00 0.00 0.00 0.00 0.00 0.00 0.00 0.00 0.00 0.00 0.00 0.00 0.00 0.00 0.00 0.00 0.00 0.00 0.00 0.00 0.00 0.00
0.02 0.01 0.01 0.00 0.00 0.00 0.00 0.00 0.00 0.00 0.00 0.00 0.00 0.00 0.00 0.00 0.00 0.00 0.00 0.00 0.00 0.00 0.00 0.00 0.00 0.00 0.00 0.00 0.00 0.00 0.00 0.00 0.00 0.00 0.00 0.00 0.00 0.00 0.00 0.00 0.00 0.00
0.01 0.01 0.00 0.01 0.00 0.00 0.00 0.00 0.00 0.00 0.00 0.00 0.00 0.00 0.00 0.00 0.00 0.00 0.00 0.00 0.00 0.00 0.00 0.00 0.00 0.00 0.00 0.00 0.00 0.00 0.00 0.00 0.00 0.00 0.00 0.00 0.00 0.00 0.00 0.00 0.00 0.00
0.01 0.01 0.01 0.01 0.01 0.00 0.00 0.00 0.00 0.00 0.00 0.00 0.00 0.00 0.00 0.00 0.00 0.00 0.00 0.00 0.00 0.00 0.00 0.00 0.00 0.00 0.00 0.00 0.00 0.00 0.00 0.00 0.00 0.00 0.00 0.00 0.00 0.00 0.00 0.00 0.00 0.00
MSLP
1009.61 1009.85 1010.41 1010.85 1011.09 1011.37 1011.85 1012.41 1012.77 1013.17 1013.49 1013.53 1013.69 1014.01 1014.25 1014.41 1014.57 1014.97 1015.21 1015.33 1015.65 1016.05 1016.41 1016.65 1017.01 1017.37 1017.77 1017.97 1018.13 1018.21 1018.45 1018.65 1018.77 1018.57 1018.69 1019.01 1019.13 1019.29 1019.69 1019.89 1019.93 1019.81
1009.37 1009.61 1009.97 1010.49 1010.89 1011.09 1011.37 1011.73 1012.33 1012.77 1013.13 1013.17 1013.17 1013.49 1013.81 1014.09 1014.37 1014.69 1014.85 1015.17 1015.49 1015.85 1016.17 1016.57 1016.93 1017.21 1017.49 1017.69 1018.05 1018.25 1018.37 1018.49 1018.65 1018.53 1018.81 1019.05 1019.09 1019.25 1019.57 1019.73 1019.89 1019.85
1009.17 1009.37 1009.69 1010.21 1010.53 1010.85 1011.09 1011.41 1011.89 1012.37 1012.69 1012.73 1012.77 1013.09 1013.45 1013.73 1014.13 1014.41 1014.61 1014.89 1015.25 1015.65 1016.13 1016.45 1016.77 1016.97 1017.25 1017.49 1017.89 1018.17 1018.29 1018.41 1018.49 1018.65 1018.77 1018.89 1018.93 1019.05 1019.25 1019.49 1019.61 1019.69
1008.81 1008.93 1009.29 1009.85 1010.17 1010.49 1010.69 1011.21 1011.69 1012.09 1012.33 1012.53 1012.61 1012.81 1013.21 1013.61 1013.97 1014.25 1014.45 1014.73 1015.05 1015.53 1015.97 1016.37 1016.57 1016.81 1017.05 1017.33 1017.77 1018.05 1018.05 1018.17 1018.21 1018.37 1018.65 1018.69 1018.81 1018.93 1019.05 1019.21 1019.33 1019.41
1008.45 1008.69 1009.01 1009.53 1009.81 1010.01 1010.37 1010.93 1011.41 1011.77 1012.01 1012.09 1012.29 1012.69 1013.09 1013.45 1013.77 1013.97 1014.17 1014.49 1014.85 1015.33 1015.69 1016.17 1016.41 1016.77 1017.05 1017.29 1017.53 1017.85 1017.97 1017.97 1018.05 1018.33 1018.53 1018.69 1018.73 1018.85 1018.93 1019.09 1019.25 1019.49
1008.01 1008.21 1008.61 1009.13 1009.45 1009.73 1010.09 1010.61 1011.01 1011.41 1011.65 1011.93 1012.13 1012.37 1012.81 1013.05 1013.37 1013.57 1013.89 1014.29 1014.57 1014.97 1015.45 1015.93 1016.37 1016.73 1016.97 1017.13 1017.45 1017.61 1017.85 1017.89 1018.05 1018.29 1018.41 1018.57 1018.65 1018.77 1018.89 1019.01 1019.13 1019.37
1007.61 1007.85 1008.29 1008.73 1009.13 1009.33 1009.77 1010.21 1010.61 1010.93 1011.25 1011.49 1011.77 1012.17 1012.41 1012.81 1013.09 1013.25 1013.57 1013.93 1014.33 1014.77 1015.09 1015.57 1016.09 1016.45 1016.69 1016.97 1017.21 1017.41 1017.53 1017.61 1017.85 1018.13 1018.21 1018.29 1018.45 1018.77 1018.85 1018.93 1019.01 1019.13
1007.17 1007.53 1007.89 1008.37 1008.85 1009.21 1009.57 1009.85 1010.25 1010.57 1010.89 1011.21 1011.57 1011.85 1012.05 1012.45 1012.69 1012.97 1013.29 1013.65 1014.01 1014.41 1014.77 1015.17 1015.65 1015.97 1016.33 1016.53 1016.81 1017.13 1017.41 1017.49 1017.77 1017.85 1018.01 1018.09 1018.37 1018.57 1018.69 1018.81 1018.93 1019.01
1006.77 1007.21 1007.61 1008.09 1008.57 1008.89 1009.21 1009.41 1009.81 1010.25 1010.45 1010.89 1011.29 1011.57 1011.81 1012.01 1012.29 1012.65 1012.97 1013.33 1013.69 1014.09 1014.45 1014.89 1015.29 1015.65 1015.97 1016.25 1016.49 1016.81 1017.09 1017.37 1017.53 1017.61 1017.81 1018.01 1018.25 1018.33 1018.45 1018.65 1018.85 1018.97
1006.49 1006.81 1007.25 1007.65 1008.21 1008.49 1008.81 1009.01 1009.37 1009.77 1010.09 1010.49 1010.81 1011.17 1011.61 1011.77 1011.93 1012.37 1012.77 1013.09 1013.57 1013.97 1014.29 1014.69 1015.01 1015.37 1015.73 1015.97 1016.21 1016.45 1016.73 1017.05 1017.29 1017.41 1017.57 1017.77 1017.93 1018.05 1018.21 1018.49 1018.65 1018.93
1006.17 1006.41 1006.81 1007.21 1007.73 1008.13 1008.53 1008.77 1009.01 1009.45 1009.85 1010.25 1010.53 1010.93 1011.25 1011.49 1011.81 1012.09 1012.57 1012.89 1013.37 1013.65 1014.05 1014.41 1014.69 1015.05 1015.45 1015.77 1016.01 1016.21 1016.41 1016.73 1016.97 1017.13 1017.37 1017.53 1017.65 1017.81 1018.09 1018.25 1018.45 1018.69
1005.77 1006.01 1006.29 1006.69 1007.29 1007.81 1008.25 1008.41 1008.61 1009.05 1009.57 1009.93 1010.09 1010.61 1010.97 1011.17 1011.57 1011.89 1012.25 1012.65 1012.97 1013.29 1013.69 1014.05 1014.33 1014.73 1015.09 1015.45 1015.73 1016.05 1016.29 1016.57 1016.77 1016.97 1017.17 1017.33 1017.49 1017.69 1017.93 1018.09 1018.33 1018.53
1005.29 1005.57 1005.73 1006.17 1006.81 1007.41 1007.85 1008.09 1008.29 1008.65 1009.13 1009.53 1009.69 1010.21 1010.61 1011.05 1011.29 1011.61 1011.97 1012.29 1012.61 1012.89 1013.37 1013.77 1014.09 1014.45 1014.85 1015.21 1015.53 1015.85 1016.21 1016.49 1016.73 1016.89 1017.05 1017.25 1017.45 1017.57 1017.77 1018.01 1018.21 1018.37
1004.69 1005.01 1005.33 1005.73 1006.37 1007.01 1007.49 1007.69 1007.89 1008.29 1008.69 1009.05 1009.49 1009.85 1010.29 1010.61 1011.01 1011.37 1011.77 1012.05 1012.29 1012.61 1013.01 1013.45 1013.81 1014.25 1014.57 1014.93 1015.25 1015.69 1016.05 1016.37 1016.61 1016.81 1016.97 1017.21 1017.37 1017.49 1017.69 1017.93 1018.13 1018.29
1004.21 1004.65 1005.01 1005.53 1006.05 1006.69 1007.21 1007.37 1007.49 1007.85 1008.29 1008.69 1009.21 1009.53 1009.93 1010.25 1010.61 1011.01 1011.57 1011.97 1012.13 1012.57 1012.97 1013.29 1013.65 1014.05 1014.29 1014.73 1015.09 1015.57 1015.85 1016.17 1016.37 1016.61 1016.81 1017.09 1017.33 1017.53 1017.73 1017.89 1018.05 1018.21
1003.85 1004.37 1004.81 1005.25 1005.81 1006.37 1006.85 1007.13 1007.37 1007.65 1007.97 1008.37 1008.89 1009.25 1009.69 1010.05 1010.45 1010.81 1011.33 1011.77 1012.21 1012.57 1012.81 1013.21 1013.53 1013.77 1014.17 1014.73 1014.97 1015.29 1015.65 1015.85 1016.21 1016.41 1016.65 1016.89 1017.21 1017.45 1017.69 1017.77 1017.85 1018.05
1003.61 1004.17 1004.61 1005.05 1005.41 1006.01 1006.53 1006.89 1007.13 1007.33 1007.69 1008.21 1008.65 1009.05 1009.49 1009.89 1010.29 1010.73 1011.17 1011.53 1011.97 1012.37 1012.81 1013.17 1013.41 1013.65 1014.41 1014.85 1015.17 1015.37 1015.41 1015.73 1016.01 1016.25 1016.49 1016.73 1016.97 1017.25 1017.49 1017.61 1017.77 1017.93
1003.25 1003.81 1004.33 1004.77 1005.25 1005.73 1006.21 1006.57 1006.85 1007.13 1007.45 1007.93 1008.45 1008.93 1009.29 1009.69 1010.21 1010.53 1010.97 1011.41 1011.81 1012.17 1012.65 1012.97 1013.17 1013.77 1014.45 1014.93 1015.25 1015.45 1015.49 1015.57 1015.77 1016.05 1016.33 1016.49 1016.69 1016.93 1017.13 1017.37 1017.61 1017.85
1002.93 1003.49 1003.97 1004.53 1004.89 1005.25 1005.85 1006.33 1006.65 1007.01 1007.21 1007.65 1008.21 1008.57 1009.01 1009.65 1010.05 1010.41 1010.89 1011.25 1011.65 1012.01 1012.41 1012.77 1013.01 1013.89 1014.41 1014.93 1015.25 1015.45 1015.61 1015.53 1015.53 1015.77 1016.05 1016.21 1016.41 1016.65 1016.81 1017.09 1017.37 1017.69
1002.61 1003.09 1003.61 1004.05 1004.45 1005.01 1005.57 1006.01 1006.45 1006.81 1006.89 1007.17 1007.89 1008.41 1008.89 1009.45 1009.93 1010.37 1010.77 1011.13 1011.45 1011.77 1012.17 1012.49 1012.85 1013.89 1014.41 1014.89 1015.25 1015.45 1015.65 1015.65 1015.29 1015.65 1015.81 1015.97 1016.21 1016.41 1016.65 1016.89 1017.13 1017.37
1002.49 1002.81 1003.21 1003.73 1004.25 1004.77 1005.33 1005.85 1006.37 1006.69 1006.89 1007.05 1007.53 1008.13 1008.65 1009.21 1009.73 1010.21 1010.65 1011.09 1011.45 1011.69 1011.97 1012.37 1012.69 1013.69 1014.33 1014.93 1015.29 1015.57 1015.73 1015.73 1015.25 1015.57 1015.69 1015.85 1016.09 1016.29 1016.53 1016.69 1016.93 1017.13
1002.17 1002.65 1003.05 1003.53 1004.05 1004.61 1005.17 1005.69 1006.13 1006.49 1006.93 1007.01 1007.17 1007.77 1008.29 1008.77 1009.53 1009.85 1010.49 1011.01 1011.33 1011.65 1011.93 1012.21 1012.73 1013.61 1014.29 1014.89 1015.41 1015.65 1015.85 1015.65 1015.25 1015.49 1015.57 1015.73 1015.97 1016.17 1016.37 1016.53 1016.73 1017.05
1001.85 1002.37 1002.85 1003.45 1003.97 1004.57 1004.97 1005.33 1005.73 1006.29 1006.69 1006.81 1007.25 1007.85 1008.29 1008.69 1009.21 1009.61 1010.13 1010.77 1011.25 1011.53 1011.81 1012.01 1012.69 1013.77 1014.25 1014.85 1015.33 1015.65 1015.77 1015.21 1015.09 1015.21 1015.37 1015.61 1015.85 1016.05 1016.21 1016.41 1016.65 1016.89
1001.57 1002.09 1002.81 1003.37 1003.89 1004.37 1004.69 1005.09 1005.61 1006.13 1006.57 1006.89 1007.21 1007.65 1008.13 1008.53 1009.05 1009.41 1009.93 1010.37 1010.85 1011.25 1011.57 1011.93 1012.49 1013.73 1014.25 1014.77 1015.17 1015.53 1015.21 1014.77 1014.73 1014.81 1015.09 1015.37 1015.65 1015.93 1016.01 1016.29 1016.57 1016.93
1001.37 1001.93 1002.49 1003.01 1003.69 1004.25 1004.57 1005.05 1005.57 1006.01 1006.41 1006.89 1007.13 1007.49 1008.05 1008.45 1008.89 1009.33 1009.97 1010.37 1010.69 1010.97 1011.45 1011.77 1012.25 1013.65 1014.37 1014.69 1015.09 1015.25 1015.05 1014.45 1014.33 1014.33 1014.81 1015.05 1015.29 1015.73 1015.85 1016.05 1016.45 1017.01
1001.01 1001.69 1002.17 1002.73 1003.45 1004.05 1004.45 1004.89 1005.49 1006.09 1006.53 1006.89 1007.17 1007.49 1008.05 1008.29 1008.65 1009.21 1009.89 1010.29 1010.65 1011.01 1011.49 1011.65 1012.05 1013.29 1014.33 1014.61 1014.85 1015.01 1014.81 1014.13 1013.93 1014.01 1014.49 1014.81 1014.97 1015.29 1015.69 1015.93 1016.21 1016.73
Thickness
5715 5715 5712 5711 5711 5711 5708 5705 5701 5698 5696 5698 5696 5694 5691 5689 5688 5685 5683 5682 5679 5675 5672 5669 5667 5664 5662 5661 5659 5658 5657 5656 5655 5655 5654 5651 5649 5647 5644 5640 5639 5639
5713 5713 5712 5710 5710 5710 5709 5705 5701 5698 5697 5698 5698 5695 5692 5690 5687 5685 5683 5682 5678 5675 5671 5669 5666 5664 5662 5660 5657 5656 5656 5654 5653 5653 5651 5649 5648 5645 5642 5639 5638 5637
5712 5713 5712 5710 5709 5709 5708 5705 5701 5698 5697 5698 5698 5696 5693 5689 5687 5685 5683 5681 5678 5674 5671 5668 5666 5664 5662 5660 5656 5655 5654 5652 5652 5651 5649 5648 5646 5644 5642 5640 5638 5637
5711 5713 5712 5710 5708 5708 5707 5704 5699 5698 5697 5698 5698 5695 5692 5689 5686 5684 5683 5680 5677 5674 5670 5667 5665 5663 5661 5658 5655 5653 5653 5652 5651 5649 5647 5646 5645 5643 5641 5640 5638 5636
5710 5712 5711 5708 5707 5708 5707 5703 5699 5697 5698 5698 5697 5694 5691 5688 5686 5684 5682 5680 5677 5674 5670 5667 5664 5662 5659 5657 5655 5652 5651 5651 5650 5648 5646 5644 5642 5641 5640 5638 5636 5634
5710 5711 5710 5708 5707 5708 5706 5703 5699 5698 5698 5697 5696 5694 5691 5688 5686 5685 5682 5680 5677 5674 5670 5666 5662 5660 5658 5656 5654 5651 5650 5650 5648 5646 5644 5643 5641 5640 5638 5636 5635 5632
5711 5711 5710 5707 5707 5706 5706 5703 5700 5698 5698 5697 5695 5694 5691 5689 5687 5685 5682 5680 5677 5674 5671 5667 5663 5660 5658 5656 5654 5651 5650 5649 5647 5645 5643 5642 5640 5638 5636 5635 5633 5631
5711 5709 5708 5706 5705 5705 5704 5703 5700 5698 5698 5697 5695 5693 5691 5689 5687 5685 5682 5680 5678 5674 5671 5668 5664 5661 5658 5656 5654 5652 5649 5648 5646 5644 5643 5642 5639 5637 5636 5634 5632 5630
5710 5708 5707 5706 5705 5703 5704 5704 5700 5698 5697 5696 5694 5692 5690 5689 5688 5685 5682 5681 5677 5675 5672 5668 5665 5662 5659 5657 5655 5652 5649 5647 5645 5644 5643 5641 5639 5637 5635 5633 5630 5627
5708 5707 5706 5705 5705 5704 5704 5703 5700 5698 5697 5696 5694 5692 5690 5688 5687 5684 5681 5680 5677 5674 5671 5668 5665 5662 5659 5657 5655 5652 5650 5647 5645 5644 5642 5640 5639 5637 5634 5631 5629 5626
5708 5707 5707 5706 5705 5704 5704 5702 5700 5698 5695 5694 5694 5691 5689 5688 5686 5684 5681 5679 5676 5673 5671 5668 5665 5662 5659 5657 5654 5652 5650 5647 5645 5644 5642 5640 5638 5636 5633 5630 5628 5625
5708 5709 5708 5707 5706 5704 5702 5701 5700 5698 5695 5694 5694 5690 5688 5687 5685 5683 5680 5678 5676 5673 5671 5668 5666 5662 5659 5656 5653 5651 5648 5646 5644 5643 5641 5639 5637 5634 5632 5629 5627 5624
5709 5710 5710 5709 5707 5704 5701 5700 5699 5697 5695 5694 5693 5690 5687 5686 5684 5682 5680 5678 5676 5674 5670 5667 5665 5662 5658 5656 5653 5650 5647 5644 5642 5641 5639 5637 5635 5633 5631 5628 5625 5623
5711 5711 5710 5709 5707 5703 5700 5699 5699 5697 5695 5694 5692 5690 5688 5685 5684 5681 5678 5677 5675 5673 5670 5667 5664 5661 5658 5655 5652 5649 5646 5643 5640 5639 5637 5635 5632 5631 5629 5626 5624 5622
5712 5710 5709 5708 5706 5702 5698 5698 5698 5696 5695 5693 5691 5689 5687 5685 5683 5681 5677 5675 5673 5670 5668 5665 5662 5660 5658 5655 5652 5648 5644 5642 5640 5637 5635 5632 5630 5628 5626 5624 5622 5619
5710 5708 5708 5707 5704 5700 5698 5696 5696 5695 5694 5692 5690 5688 5686 5683 5681 5679 5676 5673 5670 5668 5665 5663 5661 5659 5656 5652 5649 5646 5643 5641 5638 5636 5634 5631 5628 5626 5624 5622 5620 5618
5708 5707 5707 5705 5703 5699 5697 5695 5694 5693 5692 5690 5688 5686 5684 5681 5680 5677 5675 5672 5669 5666 5663 5660 5659 5657 5652 5649 5646 5643 5642 5640 5637 5634 5633 5630 5627 5625 5623 5621 5619 5617
5707 5706 5705 5703 5701 5698 5695 5693 5691 5691 5690 5688 5686 5684 5682 5679 5677 5675 5673 5670 5667 5665 5661 5659 5658 5655 5649 5645 5642 5640 5639 5638 5636 5634 5631 5629 5627 5625 5623 5620 5618 5615
5706 5705 5703 5701 5700 5697 5694 5691 5689 5688 5688 5687 5685 5683 5681 5677 5674 5673 5671 5668 5666 5663 5660 5659 5656 5651 5646 5642 5639 5637 5636 5635 5635 5633 5631 5629 5627 5625 5622 5620 5617 5614
5705 5704 5703 5701 5699 5696 5692 5689 5686 5686 5686 5686 5683 5680 5678 5675 5672 5670 5668 5665 5664 5661 5659 5658 5655 5649 5643 5640 5637 5634 5632 5632 5634 5631 5629 5628 5626 5623 5621 5618 5616 5613
5703 5702 5702 5699 5696 5693 5689 5686 5683 5682 5683 5683 5682 5680 5677 5674 5670 5668 5666 5663 5661 5660 5657 5656 5653 5646 5641 5636 5633 5631 5628 5629 5631 5629 5627 5626 5624 5621 5619 5616 5614 5611
5700 5699 5698 5696 5693 5689 5686 5684 5681 5680 5679 5681 5681 5678 5676 5672 5669 5667 5664 5660 5658 5657 5655 5654 5650 5643 5638 5634 5630 5627 5625 5627 5628 5627 5625 5624 5621 5619 5617 5615 5612 5609
5699 5697 5694 5692 5688 5686 5684 5683 5680 5678 5677 5677 5677 5675 5673 5670 5667 5665 5662 5659 5656 5654 5652 5651 5647 5640 5635 5632 5627 5624 5624 5626 5627 5626 5624 5622 5619 5617 5615 5612 5609 5606
5696 5694 5690 5688 5685 5683 5682 5680 5676 5674 5674 5674 5674 5672 5669 5667 5665 5663 5659 5657 5655 5652 5651 5649 5645 5638 5633 5629 5625 5623 5624 5626 5627 5626 5623 5621 5618 5615 5612 5610 5606 5602
5693 5690 5687 5685 5682 5679 5679 5677 5672 5671 5671 5670 5669 5668 5666 5664 5663 5660 5655 5654 5652 5650 5648 5647 5643 5635 5629 5627 5624 5621 5623 5626 5628 5626 5623 5620 5617 5613 5610 5608 5604 5598
5689 5687 5686 5684 5679 5675 5675 5673 5670 5668 5667 5665 5666 5665 5663 5661 5660 5657 5652 5650 5650 5647 5645 5644 5642 5634 5627 5624 5622 5620 5621 5625 5627 5625 5621 5619 5616 5612 5609 5606 5602 5597